Location: Lombard
(41.8800°N, 88.0080°W)
Time: 18:33:30
(UTC-06:00)

Vanguard 3 - Pass Details

Date: 12 December 2023
Orbit: 508 x 3239 km, 33.4° (Epoch: 23 February)

Event Time Altitude Azimuth Distance (km) Brightness Sun altitude
Rises 16:38:49 0° 205° (SSW) 7,092 12.9 -3.7°
Reaches altitude 10° 16:44:42 10° 195° (SSW) 6,159 12.3 -4.7°
Maximum altitude 16:59:28 28° 146° (SE) 4,543 10.9 -7.1°
Drops below altitude 10° 17:11:41 10° 96° (E) 5,106 10.7 -9.2°
Enters shadow 17:13:28 - 91° (E) 5,355 10.7 -9.5°
